Location: Bremen
(53.0793°N, 8.8017°E)
Time: 11:28:04
(UTC+02:00)

Transit 2A Rocket - Pass Details

Date: 23 June 2024
Orbit: 582 x 910 km, 66.7° (Epoch: 19 July)

Event Time Altitude Azimuth Distance (km) Brightness Sun altitude
Rises 02:33:00 0° 304° (NW) 3,379 8.6 -12.2°
Reaches altitude 10° 02:35:57 10° 319° (NW) 2,494 8.1 -12.0°
Maximum altitude 02:40:30 23° 11° (N) 1,806 8.0 -11.9°
Drops below altitude 10° 02:45:12 10° 62° (ENE) 2,592 8.4 -11.6°
Sets 02:48:20 0° 77° (ENE) 3,545 8.9 -11.5°
